BLOCK DM-SL R/B, 28138

Orbit data source: Space-Track

BLOCK DM-SL R/B, 28138 is space debris in HEO originally from a launch on Sun, 11 Jan 2004 UTC launched from the Sea Launch (SEAL). Debris objects in space refer to the collection of defunct objects orbiting the Earth. Examples of debris include non-operational satellites, rocket bodies, and fragments generated from explosions, collisions, or faulty payload assembly.

Loading next visibility...
Identifier
28138, 2004-001B
Orbit
HEO
Country
Flag of USUS / SEAL
Related business
Manufacturer
RKKE
Mission
Spacecraft
Bus & Motor
BLOK DM2, 11D58M
Mass
~3,210 kg wet, 3,210 kg dry
Launch date (UTC)
2004-01-11 (22 years ago)
Launch vehicle
Unknown
Launch site
Sea Launch (SEAL)
Object type
Payload
Rocket body
Debris
Shape & HBR
Cyl, 3.1 m
Radar Cross Section
23.684 m², Large (>1 m²)

Expand to show TLE details & history
Last TLE update: 1 day ago

TLE from 1 day ago
0 BLOCK DM-SL R/B
1 28138U 04001B   26093.85336377 -.00000089  00000-0  36109-3 0  9999
2 28138   0.8469  16.1962 7139045 312.2463   4.0339  2.24741828182543
Epoch: 2026-04-03T20:28Z
TLE epoch observation values (Epoch: 2026-04-03T20:28:50.629Z)
Latitude
-0.24412°
Longitude
-139.39154°
Altitude
1,125.876 km
Speed
9.489 km/s
True Right ascension
00h 00m 00s
True Declination
0° 14' 34"
Sunlit
Object was in daylight at epoch
Visualization orbit readout
Latitude
Unknown
Longitude
Unknown
Altitude
Unknown
Speed
Unknown
Apparent Right ascension
Unknown
Apparent Declination
Unknown
Sunlit
N/A
Visualization observer readout
Local Sidereal Time
03:18:01
Azimuth
Unknown
Elevation
Unknown
Doppler factor
Unknown
Orbital elements
Apogee altitude
35,826.289 km
Perigee altitude
666.886 km
Semi-major axis
24,624.725 km
Eccentricity
0.7139
Inclination
0.8469°
RAAN
16.1962°
Arg. of periapsis
312.2463°
True anomaly
32.92909°
Mean anomaly
4.0339°
Eccentric anomaly
13.77001°
Mean motion
0.56168 °/min
Orbital period
640.94 mins
BSTAR
0.00036109
Loading maneuver chart data...
Computing Atmospheric mass density...
Loading historical data...
Loading historical data...
Loading historical data...
Loading historical data...
Loading historical data...
Loading historical data...
Loading historical data...
Other satellites on launch #1 in the year 2004 (2004-01-11 UTC)

Documentation

Showing up to 5 results
|